Regional Weather Roundup
Issued by NWS Cleveland, OH

Home | Current Version | Previous Version | Text Only | Print | Product List | Glossary Off
Versions: 1 2 3 4 5 6 7 8 9 10 11 12 13 14 15 16 17 18 19 20 21 22 23 24 25 26 27 28 29 30 31 32 33 34 35 36 37 38 39 40 41 42 43 44 45 46 47 48 49 50

000
ASUS41 KCLE 181700
RWRCLE
OHIO REGIONAL WEATHER ROUNDUP
NATIONAL WEATHER SERVICE WILMINGTON, OH
100 PM EDT FRI APR 18 2014

NOTE: "FAIR" INDICATES FEW OR NO CLOUDS BELOW 12,000 FEET WITH NO
SIGNIFICANT WEATHER AND/OR OBSTRUCTIONS TO VISIBILITY.

OHZ001>008-015>018-024>027-034-035-043-044-181800-
   NORTHWEST OHIO

CITY           SKY/WX    TMP DP  RH WIND       PRES   REMARKS
DEFIANCE       PTSUNNY   64  39  39 W10G21    30.27F
FINDLAY        MOSUNNY   65  41  41 W6        30.26F
TOLEDO EXPRESS CLOUDY    61  40  45 W9        30.27S
TOLEDO METCALF PTSUNNY   63  39  41 W9        30.27F
LIMA           SUNNY     64  39  39 SE3       30.27F
$$

OHZ009>014-019>023-028>033-038-089-181800-
   NORTHEAST OHIO

CITY           SKY/WX    TMP DP  RH WIND       PRES   REMARKS
CLE-HOPKINS    MOSUNNY   60  39  45 N12       30.31R
CLE-LAKEFRONT  MOSUNNY   54  41  61 N5        30.28R
CUY CO. ARPT   PTSUNNY   55  39  54 NW7       30.30
LORAIN-ELYRIA  MOSUNNY   63  40  42 E5        30.28F
ASHTABULA      PTSUNNY   60  34  37 VRB5      30.27F
AKRON-CANTON   PTSUNNY   62  34  35 VRB7      30.26F
WOOSTER        NOT AVBL
MANSFIELD      MOSUNNY   64  38  38 VRB3      30.28S
YOUNGSTOWN     CLOUDY    61  32  33 S5        30.27F
$$

OHZ042-051>053-060>062-070>072-077>081-181800-
  SOUTHWEST OHIO

CITY           SKY/WX    TMP DP  RH WIND       PRES   REMARKS
CINC-COVINGTON PTSUNNY   67  36  31 NW5       30.29F
CINC-LUNKEN    PTSUNNY   66  41  40 CALM      30.29F
HAMILTON       PTSUNNY   67  39  35 NW6       30.30F
DAYTON         NOT AVBL
WRIGHT-PAT AFB PTSUNNY   65  38  37 N7        30.28F
DAYTON GENERAL PTSUNNY   65  37  35 NW8       30.28F
WILMINGTON     PTSUNNY   65  36  34 W3        30.28F
$$

OHZ036-037-039>041-045>050-054>059-063>069-073>076-082>088-181800-
  CENTRAL AND SOUTHEAST OHIO

CITY           SKY/WX    TMP DP  RH WIND       PRES   REMARKS
COLUMBUS       PTSUNNY   66  34  30 CALM      30.28F
OSU AIRPORT    PTSUNNY   66  35  31 VRB5      30.27F
BOLTON FIELD   SUNNY     64  39  39 S5        30.28F
RICKENBACK AFB NOT AVBL
NEWARK         PTSUNNY   66  33  29 CALM      30.27F
MARION         MOSUNNY   63  38  39 VRB5      30.28F
LANCASTER      PTSUNNY   65  37  35 S5        30.28F
ZANESVILLE     PTSUNNY   64  34  32 VRB5      30.28F
NEW PHILLY     PTSUNNY   63  30  28 NW3       30.28F
$$



USA.gov is the U.S. government's official web portal to all federal, state and local government web resources and services.